Gabriel Arias

Chief Scout - Almirante Brown
4 Dec 2028
Monday
Process

Personality

Adaptability (17) Ambition (4) Controversy (5) Loyalty (13) Pressure (2) Professionalism (16) Sportsmanship (6) Temperament (17)

Profile

Coaching Style Democratic
License Continental B
Determination 7
Man Management 6
Motivating 6
Discipline 6
Job Satisfaction
100%
Fatigue
0%
Role Chief Scout
Wage 25.1K p/w
Contract 14.03.2029

Performance

Behaviour Good
Training Effectiveness
20%
Player Development
25%
Injury Prevention
25%
Tactical Implementation
20%

Recent Events

Assessed a player now
Attended a recruitment meeting now
Assessed a player now
Assessed a player 7d ago
Assessed a player 7d ago
Assessed a player 7d ago
Assessed a player 7d ago
Assessed a player 7d ago

Currently Monitoring

129
Player Club Status Ability Confidence Watched Last Observed Latest Vote
Tomás Rojas Atlanta Active 101 / 120 40% 4 30.11.2028 -
Lucas Más Maipú Active 110 / 100 40% 3 30.11.2028 -
Jairo Guerra Colon Active 102 / 102 40% 2 29.11.2028 -
Iván Cabrera Arsenal Active 119 / 99 40% 2 29.11.2028 -
Joaquín Livera Morón Active 98 / 115 40% 2 28.11.2028 -
Agustín Benítez Defensores Active 124 / 120 40% 1 28.11.2028 -
Juan Yangali San Telmo Active 121 / 122 40% 2 27.11.2028 -
Leonel Pollacchi San Telmo Active 116 / 109 40% 3 27.11.2028 -
Alejo Tabares All Boys Active 126 / 117 40% 3 26.11.2028 -
Roger Manríque Mineros de Guayana Active 106 / 102 40% 2 26.11.2028 -
Tomás Ferreyra Defensores Unidos Active 129 / 114 40% 2 25.11.2028 -
Marcio Gómez Racing Active 127 / 123 40% 1 25.11.2028 -
Siro Rosané Estudiantes Active 136 / 110 40% 5 24.11.2028 -
Leandro Lucero Temperley Active 102 / 110 40% 1 24.11.2028 -
Guillermo Rodríguez San Martín Active 124 / 107 40% 2 23.11.2028 -
Alan Olinick Racing Active 124 / 110 40% 1 23.11.2028 -
Tomás Castro Ponce Atlanta Active 124 / 107 40% 3 21.11.2028 -
Mauro Peinipil Colón Active 129 / 106 40% 4 20.11.2028 -
Franco Hanashiro Colegiales Active 116 / 100 40% 3 20.11.2028 -
Nazareno Kihm Ferro Carril Oeste Active 130 / 124 40% 4 19.11.2028 -
Yeferson Rodallega Envigado Active 132 / 123 40% 3 19.11.2028 -
Tiago Ferreyra Mitre Active 107 / 109 40% 1 18.11.2028 -
Valentin Vidal Union Espanola Active 124 / 111 40% 2 17.11.2028 -
Emiliano Aires Rampla Juniors Active 99 / 104 40% 2 17.11.2028 -
Facundo Butti Cerro Active 109 / 97 40% 5 15.11.2028 -
Nicolás Fernández Maipú Active 122 / 100 40% 2 15.11.2028 -
Franco Díaz Temperley Active 139 / 130 40% 3 13.11.2028 -
Simón Contreras Iquique Active 104 / 95 40% 2 12.11.2028 -
Gonzalo Trindade Nueva Chicago Active 128 / 123 40% 2 12.11.2028 -
Antonio Díaz Universidad de Chile Active 101 / 123 40% 1 11.11.2028 -
Julián Vila Arsenal Active 93 / 115 40% 1 11.11.2028 -
Abel Bustos Racing Active 106 / 120 40% 4 02.11.2028 -
Mirko Bonfigli Central Córdoba SdE Active 117 / 109 40% 1 02.11.2028 -
Erik de los Santos Racing Active 105 / 107 40% 1 01.11.2028 -
Lautaro Dufur Juventud Active 115 / 100 40% 2 28.10.2028 -
Gabriel Chocobar Oriental Active 97 / 102 40% 1 28.10.2028 -
Tobías Leiva Estudiantes Active 126 / 106 40% 6 25.10.2028 -
Facundo López Morón Active 93 / 97 40% 1 23.10.2028 -
Mauricio Guzmán Tristán Suárez Active 119 / 125 40% 1 23.10.2028 -
Federico Acosta Miramar Misiones Active 98 / 110 40% 2 22.10.2028 -
Matías Bazzi Talleres Active 102 / 98 40% 1 22.10.2028 -
Lucas Arzamendia Atenas Active 113 / 100 40% 2 21.10.2028 -
Gabriel Díaz Patronato Active 114 / 117 40% 1 21.10.2028 -
Enzo Silcan Almagro Active 128 / 110 40% 2 18.10.2028 -
Santiago Kubiszyn Morón Active 134 / 104 40% 2 18.10.2028 -
Valentín Serrano Arsenal Active 97 / 105 40% 3 15.10.2028 -
Brandon Mejía Fortaleza CEIF Active 108 / 92 40% 3 14.10.2028 -
Laureano Rodríguez San Martín Active 103 / 109 40% 2 11.10.2028 -
Marcos Enrique Tristán Suárez Active 117 / 121 40% 4 11.10.2028 -
Pedro Souto Temperley Active 130 / 108 40% 4 08.10.2028 -
Brian Aguilar Tristán Suárez Active 101 / 118 40% 2 03.10.2028 -
Agustín Pereira Albion Active 105 / 114 40% 1 03.10.2028 -
Franco Quinteros Estudiantes Active 118 / 109 40% 1 27.09.2028 -
Franco Malagueño Colegiales Active 110 / 116 40% 2 25.09.2028 -
Matías Machado Racing Active 100 / 115 40% 1 25.09.2028 -
Ian Pérez Defensores Active 102 / 95 40% 1 23.09.2028 -
Matías Sánchez Racing Active 127 / 114 40% 2 21.09.2028 -
Agustín Ojeda Chaco For Ever Active 125 / 106 40% 1 20.09.2028 -
Maico Quiroz Güemes Active 124 / 111 40% 1 18.09.2028 -
Gino Olguín Ferro Carril Oeste Active 123 / 114 40% 1 15.09.2028 -
José Caicedo Bogota Active 120 / 106 40% 1 13.09.2028 -
Luis Olivera Defensores Unidos Active 101 / 119 40% 1 08.09.2028 -
Jonathan Baeza La Luz Active 108 / 92 40% 1 05.09.2028 -
Esteban de Lima Tacuarembo Active 92 / 96 40% 1 02.09.2028 -
Francisco Ginella Albion Active 99 / 108 40% 3 28.08.2028 -
Walter Juárez Güemes Active 107 / 99 40% 1 28.08.2028 -
Alan Morinigo Olimpia Active 108 / 129 40% 1 27.08.2028 -
Lucas López Iglesias 12 de Octubre Active 86 / 88 40% 1 26.08.2028 -
Stefano Fernández Alianza Atletico Active 94 / 98 40% 1 15.08.2028 -
Matías de los Santos La Luz Active 89 / 94 40% 1 13.08.2028 -
Roinner Fruto Leones Active 81 / 107 40% 1 11.08.2028 -
Facundo Barreto Cerrito Active 100 / 88 40% 1 11.08.2028 -
Camilo Machado Madryn Active 95 / 116 40% 1 28.11.2026 -
Antonio De María y Campos Tigres Active 86 / 104 40% 1 25.11.2026 -
José Barreto Quilmes Active 103 / 105 40% 3 24.11.2026 -
Nahuel Soria Oriental Active 111 / 97 40% 2 23.11.2026 -
Jonás Luna Wanderers Active 114 / 127 40% 1 23.11.2026 -
Luca Franco Arsenal Active 89 / 102 40% 1 21.11.2026 -
José Pérez Portuguesa Active 79 / 83 40% 1 20.11.2026 -
Matías Samaniego Talleres Active 83 / 97 40% 1 14.11.2026 -
Favio Cabral Mitre Active 125 / 109 40% 2 07.11.2026 -
Sebastián da Silva Racing Active 92 / 111 40% 1 04.11.2026 -
Santiago Herrera Estudiantes de Caracas Active 99 / 86 40% 3 03.11.2026 -
José Rivas Gamboa Trujillanos Active 106 / 104 40% 1 01.11.2026 -
Bruno Barja Boston River Active 100 / 92 40% 1 31.10.2026 -
Guillermo Larios Alianza Atletico Active 91 / 87 40% 1 30.10.2026 -
Lucas Pedraza Defensores Unidos Active 96 / 93 40% 2 29.10.2026 -
Bruno Motta Oriental Active 85 / 94 40% 2 28.10.2026 -
Brian González Atenas Active 92 / 96 40% 1 27.10.2026 -
Agustín Juárez Minnesota United FC Active 114 / 89 40% 1 26.10.2026 -
Alejandro Rincon Llaneros Active 106 / 90 40% 3 25.10.2026 -
Lisandro Cabrera Maipú Active 127 / 109 40% 1 25.10.2026 -
Gianluca Pugliese Güemes Active 111 / 120 40% 1 21.10.2026 -
Mauro Martín Progreso Active 100 / 106 40% 2 19.10.2026 -
Renato Alexandrino Oriental Active 93 / 96 40% 1 14.10.2026 -
Sebastián Camacho Uruguay Montevideo Active 96 / 114 40% 2 12.10.2026 -
Kevin Alaniz Rampla Juniors Active 89 / 96 40% 3 10.10.2026 -
José Alvarado Leon Active 126 / 119 40% 2 06.10.2026 -
Lautaro Gordillo Colegiales Active 106 / 122 40% 1 06.10.2026 -
Enzo Cabrera Danubio Active 114 / 100 40% 1 04.10.2026 -
Nahuel Gómez Oriental Active 92 / 82 40% 1 04.10.2026 -
Blas Armoa Gimnasia y Esgrima Active 102 / 112 40% 1 02.10.2026 -
José Rivera Universitario Active 127 / 115 40% 1 01.10.2026 -
Renzo Reynaga Patronato Active 107 / 117 40% 1 28.09.2026 -
Ronny Maza Aragua Active 109 / 105 40% 2 26.09.2026 -
Marco Miori Alvarado Active 107 / 115 40% 1 24.09.2026 -
Agustín Gallo Tristán Suárez Active 127 / 112 40% 1 22.09.2026 -
Camilo Gómez Leones Active 68 / 74 40% 1 20.09.2026 -
David Salazar Audax Italiano Active 80 / 97 40% 2 16.09.2026 -
Elías Ayala Madryn Active 116 / 114 40% 1 15.09.2026 -
Jhonier Blanco Fortaleza CEIF Active 99 / 108 40% 1 14.09.2026 -
Nahuel de Armas Fenix Active 89 / 85 40% 1 13.09.2026 -
Diego Sánchez River Plate Active 77 / 100 40% 1 10.09.2026 -
Lucas González Nacional Active 109 / 119 40% 1 10.09.2026 -
Maicol Ferreira Danubio Active 94 / 96 40% 1 06.09.2026 -
Manuel Núñez Tacuarembo Active 84 / 79 40% 1 27.08.2026 -
Nahuel Marzochi Colon Active 106 / 105 40% 1 26.08.2026 -
Carlos Figueredo 12 de Octubre Active 96 / 95 40% 1 24.08.2026 -
Víctor Rivarola Guarani Active 84 / 92 40% 1 24.08.2026 -
Santiago Cubides Jaguares Active 88 / 104 40% 1 23.08.2026 -
Ángel González Sportivo Luqueno Active 84 / 88 40% 1 17.08.2026 -
Richard Torales Guarani Active 100 / 119 40% 1 14.08.2026 -
Álex Segura Real Santander Active 90 / 95 40% 1 14.08.2026 -
Franco Pulicastro Fortaleza CEIF Active 117 / 109 40% 1 12.08.2026 -
Julian Herrera Cortulua Active 106 / 124 40% 1 07.08.2026 -
Andrés Carabalí Deportes Quindio Active 107 / 90 40% 1 07.08.2026 -
Francisco Galván Deportivo Municipal Active 96 / 117 40% 1 04.08.2026 -
Walter Domínguez Deportivo Maldonado Active 96 / 101 40% 1 04.08.2026 -
Facundo de León Progreso Active 96 / 105 40% 1 01.08.2026 -